Погода Богородское

Погода Богородское : погода сейчас, прогноз погоды и архив. Всё, что Вы хотите узнать о погоде Богородское!

Поиск расширенной информации на нашем сайте:

Другие новости

Новости СМИ2

Главная страница сайта

Новости сайта

03.07.2017

Напоминаем, что на нашем специализированном сайте Метеоцентр.Азия вы можете получить высокодетализированные автоматические прогнозы погоды по пунктам России, СНГ и мира в авиационном формате (включающие направление и скорость ветра, видимость, явления погоды, количество и форму облачности, нижнюю и верхнюю границу облачности).


Погода Богородское - сегодня

Время (UTC), дата Ветер
(°,м/с) 
Видим.   Явления Облачность Т
(°С)
Тd
(°С)
f(%) Тe
(°С)
Pmin
(гПа)
dP
(гПа)
Po
(мм)
O2
(г/м3)
Тmin Tmax R s Состояние
почвы
06 17.06.18 190 (Ю) 20000 м    10/0 средняя 
[Ac As]
+14.5 +4.1 50 +15  1006.3  -0.3  752  287           
12 17.06.18 180 (Ю) 10 км  слаб. ливневой дождь  10/6 600 м кучево-дожд., средняя 
[Cb cap|Ac As]
+10.2 +6.2 76 +10  1006.9  0.5  752  291           
15 17.06.18 150 (ЮВ) 20000 м  {ливн. осадки}  10/10 600 м кучево-дожд. 
[Cb cap]
+10.1 +6.8 80 +11  1005.8  -1.1  751  291           
18 17.06.18 тихо ()   20000 м  {ливн. осадки}  10/10 600 м 
[Sc]
+9.5 +7.9 90 +10  1005.2  -0.6  751  291           
21 17.06.18 240 (ЮЗ) 4000 м  слаб. дождь  10/10 600 м 
[Sc]
+9.5 +8.3 92 +11  1005.4  0.2  751  291  +9.3       
00 18.06.18 270 (З) 20000 м  {дождь}  10/10 600 м 
[Sc]
+12.3 +8.8 79 +14  1005.2  -0.2  751  288           
03 18.06.18 220 (ЮЗ) 20000 м    10/10 600 м 
[Sc]
+14.7 +10.1 74 +17  1004.5  -0.6  750  285           
06 18.06.18 210 (ЮЗ) 20000 м    10/9 600 м средняя 
[Sc|Ac trans]
+16.7 +10.9 69 +20  1004.5  750  283           
12 18.06.18 130 (ЮВ) 20000 м    10/8 600 м средняя 
[Sc|Ac trans]
+13.9 +10.6 80 +17  1005.9  0.8  751  286           
15 18.06.18 130 (ЮВ) 20000 м    5/3 600 м средняя 
[Sc|Ac trans]
+12 +9.6 85 +14  1005.8  0.1  751  288           
18 18.06.18 тихо ()   20000 м    9/5 600 м средняя 
[Sc|Ac trans]
+10.9 +9.3 90 +11  1005.3  -0.5  751  289           
21 18.06.18 030 (СВ) 20000 м  слаб. дождь  10/10 600 м 
[Sc]
+10.3 +8.6 89 +11  1005  -0.3  751  290  +10.3    0.8    влажная 
03 19.06.18 130 (ЮВ) 20000 м  в посл. час ливневой дождь  10/10 600 м кучево-дожд. 
[Cb cap]
+13.3 +10.1 81 +14  1001.2  -1.9  748  285           
06 19.06.18 160 (Ю) 20000 м  {ливн. осадки}  10/10 600 м кучево-дожд. 
[Cb cap]
+13.8 +10.9 83 +17  1000.8  -0.3  748  285           
12 19.06.18 тихо ()   20000 м  {ливн. осадки}  10/8 600 м кучево-дожд., средняя 
[Cb cap|As op]
+13 +10.8 86 +15  1001.3  0.4  748  286           
15 19.06.18 160 (Ю) 20000 м    10/8 600 м кучево-дожд., средняя 
[Cb cap|As op]
+12.1 +10.7 91 +15  1001  -0.3  748  286           
18 19.06.18 140 (ЮВ) 20000 м    10/10 600 м кучево-дожд. 
[Cb cap]
+11.9 +10.5 91 +15  1001.7  0.7  748  287           
03 20.06.18 010 (С) 10 км  слаб. ливневой дождь  10/10 600 м кучево-дожд. 
[Cb cap]
+10.7 +9.4 92 +10  1002.9  0.4  749  289           
06 20.06.18 010 (С) 20000 м  {ливн. осадки, дождь}  10/8 600 м кучево-дожд., средняя, верхняя 
[Cb cap|Ac trans|Ci fib]
+14 +11.3 84 +17  1002.3  -0.6  749  285           
12 20.06.18 020 (С) 10 км  слаб. ливневой дождь  10/10 600 м кучево-дожд. 
[Cb cap]
+13.3 +11.8 91 +18  1003.5  0.6  750  286           
15 20.06.18 020 (С) 20000 м  слаб. ливневой дождь  10/10 600 м кучево-дожд. 
[Cb cap]
+12.5 +11.3 92 +15  1001.5  -1.9  748  286           
18 20.06.18 020 (С) 20000 м  {ливн. осадки}  10/10 600 м кучево-дожд. 
[Cb cap]
+12.4 +11 91 +15  1001.2  -0.4  748  286           
12 21.06.18 020 (С) 2000 м  слаб. дождь{морось}  10/10 600 м 
[Sc]
+10.7 +9.7 94 +11  999.8  0.6  747  288           
15 21.06.18 010 (С) 2000 м  слаб. дождь  10/10 600 м 
[Sc]
+10.1 +9 93 +10  999.2  -0.5  746  288           
18 21.06.18 010 (С) 10 км  {дождь}  10/10 600 м 
[Sc]
+9.4 +8.3 93 +8  998.5  -0.7  746  289           
Время (UTC), дата Ветер
(°,м/с) 
Видим.   Явления Облачность Т
(°С)
Тd
(°С)
f(%) Тe
(°С)
Pmin
(гПа)
dP
(гПа)
Po
(мм)
O2
(г/м3)
Тmin Tmax R s Состояние
почвы

Для получения пояснительной информации подведите курсор к названию столбца.

ПОГОДА Богородское - архив

Всё, что Вы хотите узнать о погоде Богородское - удобно и подробно!

Выберите нужную дату (начиная с 1 января 2015* года) и нажмите кнопку "Найти".
Будут отображены архивные сводки погоды по пункту Богородское, начиная с указанной даты.


Отображать данные в формате CSV (для использования в таблицах Excel)


Внимание! Наш архив погоды предназначен исключительно для личного некоммерческого использования в познавательных целях. Если Вам необходимы официальные справки о состоянии погоды (для производственных, юридических, коммерческих и т.п. целей), обращайтесь в органы Росгидромета.

*Примечание: данная дата относится к архиву по метеостанциям СССР (Россия, СНГ, Балтия).
Архив по метеостанциям Зарубежной Европы и Азии (кроме Китая) хранится 10 дней, по другим регионам земного шара (Китай, Африка, Америка, Австралия, Океания) - 1 день.

Богородское - район местоположения метеостанции


Название, широта, долгота, высота метеостанции:
Богородское 52.4°ш. 140.5°д. 35 м над ур. моря [Российская Федерация]

Дополнительная информация

В oтличие oт бoльшинства пoгoдных сайтoв мы публикуем пoдрoбную метеoинфoрмацию в детальнoм прoфессиoнальнoм фoрмате.

Характеристики температуры и влажнoсти вoздуха измеряются на высoте 2 м в тени вдали oт зданий и деревьев.
Скoрoсть ветра измеряется на высoте 10 м (на урoвне рoста челoвека скoрoсть ветра ниже в 1.5-2 раза). Если метеoстанция нахoдится в гoрoде или в лесу, тo скoрoсть ветра занижена на 2-4 м/с пo сравнению с oткрытым местoм. Скoрoсть ветра над акватoриями крупных рек и oзёр, а также на вершинах хoлмoв на 2-5 м/с выше, чем в oбычных услoвиях.
Атмoсфернoе давление в разных тoчках местнoсти мoжет значительнo oтличаться oт давления на метеoстанции, в зависимoсти oт услoвий рельефа (при пoдъёме на 10 м давление пoнижается примернo на 1 мм рт.ст.).